(152999) = 2000 HW85

Discovered at Anderson Mesa on 2000-04-30 by LONEOS.

Orbit

Orbit type: Main Belt

Note: WebGL enabled browser required.

epoch2023-09-13.0
epoch JD2460200.5
perihelion date2022-06-21.64778
perihelion JD2459752.14778
argument of perihelion (°)121.29703
ascending node (°)100.68815
inclination (°)4.93416
eccentricity0.1366929
perihelion distance (AU)2.0627816
Tisserand w.r.t. Jupiter3.5
ΔV w.r.t. Earth (km/sec)9.1
semimajor axis (AU)2.3893950
mean anomaly (°)119.64409
mean daily motion (°/day)0.26685290
aphelion distance (AU)2.716
period (years)3.69
P-vector [x]-0.74020634
P-vector [y]-0.64243474
P-vector [z]-0.19842423
Q-vector [x]0.66704658
Q-vector [y]-0.66453557
Q-vector [z]-0.33681053
absolute magnitude16.37
phase slope0.15
uncertainty0
referenceMPO 777933
observations used717
oppositions16
arc length (days)11598
first opposition used1992
last opposition used2023
residual rms (arc-secs)0.69
perturbers coarse indicatorM-v
perturbers precise indicator003Ek
first observation date used1992-02-09.0
last observation date used2023-11-11.0
computer nameMPCLINUX
JD of orbit computation2456670.731817
perihelion JD uncertainty (days)8.7950E-05
argument of perihelion uncertainty (°)8.5954E-05
ascending node uncertainty (°)8.1357E-05
inclination uncertainty (°)5.1135E-06
eccentricity uncertainty 7.1894E-08
perihelion distance uncertainty (AU)1.7011E-07
Minimum Orbit Intersection Distances (in AU)
for orbit epoch: 2460200.5, reference: E2023-VL1
Mercury1.61134
Venus1.34029
Earth1.05815
Mars0.47701
Jupiter2.2626
Saturn6.40686
Uranus16.2041
Neptune27.1307

Observations

731 total observations over interval: 1992 02 09.14101 – 2023 11 11.299142
These data are available for download (format description).

Date (UT) J2000 RA J2000 Dec Magn Location Ref
1992 02 09.14101 07 54 37.87 +24 17 55.1 21.3 V 691 – Steward Observatory, Kitt Peak-Spacewatch MPS 77893
1992 02 09.16753 07 54 36.25 +24 18 01.6 21.1 V 691 – Steward Observatory, Kitt Peak-Spacewatch MPS 77893
1992 02 09.19687 07 54 34.61 +24 18 08.3 21.3 V 691 – Steward Observatory, Kitt Peak-Spacewatch MPS 77893
2000 04 30.28969 15 05 46.43 -09 00 37.6 18.1 R 699 – Lowell Observatory-LONEOS MPS 14661
2000 04 30.30870 15 05 45.29 -09 00 35.0   699 – Lowell Observatory-LONEOS MPS 14661
2000 04 30.32771 15 05 44.29 -09 00 32.2   699 – Lowell Observatory-LONEOS MPS 14661
2000 04 30.34671 15 05 43.19 -09 00 29.2   699 – Lowell Observatory-LONEOS MPS 14661
2000 05 05.32904 15 01 06.54 -08 48 52.3 18.4   704 – Lincoln Laboratory ETS, New Mexico MPS 14661
2000 05 05.34112 15 01 05.82 -08 48 49.3 19.0   704 – Lincoln Laboratory ETS, New Mexico MPS 14661
2000 05 05.35312 15 01 05.11 -08 48 48.6 18.5   704 – Lincoln Laboratory ETS, New Mexico MPS 14661
2000 05 05.36513 15 01 04.38 -08 48 47.8 18.7   704 – Lincoln Laboratory ETS, New Mexico MPS 14661
2000 05 05.37715 15 01 03.71 -08 48 45.4 19.4   704 – Lincoln Laboratory ETS, New Mexico MPS 14661
2000 05 11.27107 14 55 32.60 -08 38 21.8 18.4 R 699 – Lowell Observatory-LONEOS MPS 14661
2000 05 11.29011 14 55 31.51 -08 38 20.6   699 – Lowell Observatory-LONEOS MPS 14661
2000 05 11.30909 14 55 30.40 -08 38 18.1   699 – Lowell Observatory-LONEOS MPS 14661
2000 05 11.32801 14 55 29.29 -08 38 16.9   699 – Lowell Observatory-LONEOS MPS 14661
2000 05 24.24970 14 44 34.43 -08 32 28.4 18.7 R 699 – Lowell Observatory-LONEOS MPS 15859
2000 05 24.26314 14 44 33.85 -08 32 29.1   699 – Lowell Observatory-LONEOS MPS 15859
2000 05 24.27659 14 44 33.21 -08 32 29.4   699 – Lowell Observatory-LONEOS MPS 15859
2000 05 24.28998 14 44 32.58 -08 32 30.5   699 – Lowell Observatory-LONEOS MPS 15859
2000 05 27.17825 14 42 32.32 -08 34 53.3 18.4   704 – Lincoln Laboratory ETS, New Mexico MPS 15859
2000 05 27.19171 14 42 31.82 -08 34 53.6 18.7   704 – Lincoln Laboratory ETS, New Mexico MPS 15859
2000 05 27.20510 14 42 31.26 -08 34 54.1 18.8   704 – Lincoln Laboratory ETS, New Mexico MPS 15859
2000 05 27.21849 14 42 30.67 -08 34 55.1 18.6   704 – Lincoln Laboratory ETS, New Mexico MPS 15859
2000 05 27.23190 14 42 30.08 -08 34 56.3 18.0   704 – Lincoln Laboratory ETS, New Mexico MPS 15859
2000 06 05.23173 14 37 41.26 -08 51 34.3 18.6 R 699 – Lowell Observatory-LONEOS MPS 15859
2000 06 05.24759 14 37 40.89 -08 51 35.9   699 – Lowell Observatory-LONEOS MPS 15859
2000 06 05.26335 14 37 40.46 -08 51 38.9   699 – Lowell Observatory-LONEOS MPS 15859
2000 06 05.27917 14 37 40.05 -08 51 42.0   699 – Lowell Observatory-LONEOS MPS 15859
2002 12 31.29883 07 45 02.65 +22 19 51.1 19.2   704 – Lincoln Laboratory ETS, New Mexico MPS 69663
2002 12 31.31378 07 45 01.73 +22 19 55.1 19.4   704 – Lincoln Laboratory ETS, New Mexico MPS 69663
2002 12 31.35794 07 44 59.02 +22 20 07.7 19.5   704 – Lincoln Laboratory ETS, New Mexico MPS 69663
2003 01 04.30467 07 40 59.07 +22 38 42.2 19.6   704 – Lincoln Laboratory ETS, New Mexico MPS 69663
2003 01 04.31884 07 40 58.24 +22 38 45.3 19.7   704 – Lincoln Laboratory ETS, New Mexico MPS 69663
2003 01 04.34744 07 40 56.30 +22 38 54.9 19.4   704 – Lincoln Laboratory ETS, New Mexico MPS 69663
2003 01 04.36170 07 40 55.51 +22 38 57.7 20.0   704 – Lincoln Laboratory ETS, New Mexico MPS 69663
2003 01 08.31780 07 36 41.30 +22 57 38.3 18.8   704 – Lincoln Laboratory ETS, New Mexico MPS 69663
2003 01 08.33245 07 36 40.34 +22 57 42.6 19.2   704 – Lincoln Laboratory ETS, New Mexico MPS 69663
2003 01 08.34719 07 36 39.35 +22 57 47.0 19.4   704 – Lincoln Laboratory ETS, New Mexico MPS 69663
2003 01 08.36182 07 36 38.37 +22 57 51.2 19.5   704 – Lincoln Laboratory ETS, New Mexico MPS 69663
2003 01 08.37646 07 36 37.41 +22 57 56.2 19.5   704 – Lincoln Laboratory ETS, New Mexico MPS 69663
2003 01 09.24646 07 35 40.43 +23 01 59.6 18.6   704 – Lincoln Laboratory ETS, New Mexico MPS 69663
2003 01 09.26131 07 35 39.43 +23 02 04.5 19.2   704 – Lincoln Laboratory ETS, New Mexico MPS 69663
2003 01 09.27597 07 35 38.45 +23 02 08.9 19.4   704 – Lincoln Laboratory ETS, New Mexico MPS 69663
2003 01 09.29112 07 35 37.42 +23 02 13.2 19.0   704 – Lincoln Laboratory ETS, New Mexico MPS 69663
2003 01 09.30596 07 35 36.37 +23 02 17.0 19.0   704 – Lincoln Laboratory ETS, New Mexico MPS 69663
2003 01 31.26007 07 12 16.69 +24 31 31.1 19.1   704 – Lincoln Laboratory ETS, New Mexico MPS 71252
2003 01 31.27426 07 12 15.91 +24 31 33.6 19.9   704 – Lincoln Laboratory ETS, New Mexico MPS 71252
2003 01 31.30251 07 12 14.36 +24 31 39.7 19.4   704 – Lincoln Laboratory ETS, New Mexico MPS 71252
2003 01 31.31664 07 12 13.48 +24 31 41.5 19.0   704 – Lincoln Laboratory ETS, New Mexico MPS 71252
2003 02 03.15062 07 09 44.92 +24 40 23.7 19.2 C 704 – Lincoln Laboratory ETS, New Mexico MPS 294259
2003 02 03.16609 07 09 44.01 +24 40 26.9 19.2 C 704 – Lincoln Laboratory ETS, New Mexico MPS 294259
2003 02 03.21303 07 09 41.66 +24 40 34.0 20.1 C 704 – Lincoln Laboratory ETS, New Mexico MPS 294259
2004 06 11.34043 19 25 07.80 -21 21 27.7 19.0   704 – Lincoln Laboratory ETS, New Mexico MPS 108642
2004 06 11.35142 19 25 07.35 -21 21 30.1 19.1   704 – Lincoln Laboratory ETS, New Mexico MPS 108642
2004 06 11.36153 19 25 06.95 -21 21 32.7 18.9   704 – Lincoln Laboratory ETS, New Mexico MPS 108642
2004 06 11.37200 19 25 06.52 -21 21 35.3 19.3   704 – Lincoln Laboratory ETS, New Mexico MPS 108642
2006 11 24.47058 10 20 49.99 +12 56 14.8 20.8 V G96 – Mt. Lemmon Survey MPS 190273
2006 11 24.47616 10 20 50.35 +12 56 13.0 20.4 V G96 – Mt. Lemmon Survey MPS 190273
2006 11 24.48194 10 20 50.74 +12 56 11.9 20.4 V G96 – Mt. Lemmon Survey MPS 190273
2006 11 24.48756 10 20 51.10 +12 56 10.6 20.8 V G96 – Mt. Lemmon Survey MPS 190273
2006 12 27.39702 10 48 46.40 +11 48 27.4 20.1 V G96 – Mt. Lemmon Survey MPS 191785
2006 12 27.40200 10 48 46.51 +11 48 27.6 20.1 V G96 – Mt. Lemmon Survey MPS 191785
2006 12 27.40719 10 48 46.69 +11 48 27.8 19.9 V G96 – Mt. Lemmon Survey MPS 191785
2006 12 27.41236 10 48 46.83 +11 48 27.7 20.1 V G96 – Mt. Lemmon Survey MPS 191785
2007 01 17.46341 10 53 14.14 +12 40 12.6 19.2 R 644 – Palomar Mountain/NEAT MPS 196949
2007 01 17.46460 10 53 14.14 +12 40 12.5 19.3 R 644 – Palomar Mountain/NEAT MPS 196949
2007 01 17.47422 10 53 14.05 +12 40 15.4 19.2 R 644 – Palomar Mountain/NEAT MPS 196949
2007 01 17.47540 10 53 14.06 +12 40 15.4 19.1 R 644 – Palomar Mountain/NEAT MPS 196949
2007 01 17.48500 10 53 13.98 +12 40 18.4 19.2 R 644 – Palomar Mountain/NEAT MPS 196949
2007 01 17.48620 10 53 13.97 +12 40 18.3 19.2 R 644 – Palomar Mountain/NEAT MPS 196949
2007 01 24.33005 10 51 49.61 +13 15 47.5 19.6   704 – Lincoln Laboratory ETS, New Mexico MPS 196949
2007 01 24.34708 10 51 49.23 +13 15 53.3 19.9   704 – Lincoln Laboratory ETS, New Mexico MPS 196949
2007 01 24.36149 10 51 48.96 +13 15 58.2 19.6   704 – Lincoln Laboratory ETS, New Mexico MPS 196949
2007 01 24.37607 10 51 48.62 +13 16 03.1 19.8   704 – Lincoln Laboratory ETS, New Mexico MPS 196949
2007 01 24.39119 10 51 48.34 +13 16 08.7 19.6   704 – Lincoln Laboratory ETS, New Mexico MPS 196949
2007 02 08.42514 10 43 48.67 +14 59 32.0 18.2 R 644 – Palomar Mountain/NEAT MPS 199400
2007 02 08.44675 10 43 47.68 +14 59 41.6 18.1 R 644 – Palomar Mountain/NEAT MPS 199400
2007 02 08.46710 10 43 46.74 +14 59 50.9 18.5 R 644 – Palomar Mountain/NEAT MPS 199400
2007 02 15.45259 10 38 08.71 +15 54 39.5 18.1 R 644 – Palomar Mountain/NEAT MPS 200254
2007 02 15.47419 10 38 07.54 +15 54 49.5 18.3 R 644 – Palomar Mountain/NEAT MPS 200254
2007 02 15.49457 10 38 06.44 +15 54 59.3 18.1 R 644 – Palomar Mountain/NEAT MPS 200254
2007 02 16.31273 10 37 23.66 +16 01 27.9 18.8 V 703 – Catalina Sky Survey MPS 199400
2007 02 16.32193 10 37 23.16 +16 01 32.0 19.1 V 703 – Catalina Sky Survey MPS 199400
2007 02 16.33113 10 37 22.69 +16 01 36.3 18.7 V 703 – Catalina Sky Survey MPS 199400
2007 02 16.34035 10 37 22.18 +16 01 41.0 18.8 V 703 – Catalina Sky Survey MPS 199400
2007 02 18.23541 10 35 40.12 +16 16 37.9 18.8 R 699 – Lowell Observatory-LONEOS MPS 200254
2007 02 18.25826 10 35 38.86 +16 16 48.0   699 – Lowell Observatory-LONEOS MPS 200254
